[[{"header":{"parameterUnit":"m.s-1","parameterCategory":1,"la1":30.2992,"la2":30.254,"lo1":-89.0895,"lo2":-89.0443,"dy":0.0025,"dx":0.0025,"nx":19,"ny":19,"refTime":"2026-04-07T09:00:00:Z","depth":0,"parameterNumber":2,"parameterNumberName":"U-component_of_WINDS"},"data":[0,0,0,-7.7799,-7.7801,-7.7845,-7.7845,-7.7942,-7.7943,0,0,0,0,0,0,0,0,0,0,0,-7.7811,-7.7812,-7.7799,-7.7801,-7.7845,-7.7845,-7.7942,-7.7943,0,0,0,0,0,0,0,0,0,0,0,-7.781,-7.7812,-7.7814,-7.7801,-7.7845,-7.7845,-7.7941,-7.7894,0,0,0,0,0,0,0,0,0,0,-7.7844,-7.7878,-7.7811,-7.7814,-7.7802,-7.7845,-7.7845,-7.7891,-7.7897,-7.7939,0,-7.7984,0,-7.7966,-7.7952,-7.7953,0,0,0,-7.7782,-7.7874,-7.7863,-7.7814,-7.7802,-7.7845,-7.782,-7.7893,-7.79,-7.7948,-7.7985,-7.7987,-7.7967,-7.7953,-7.7954,-7.8263,-7.8266,0,0,-7.778,-7.7832,-7.7859,-7.7869,-7.7865,-7.7819,-7.7821,-7.7897,-7.7941,-7.7985,-7.7989,-7.7969,-7.7954,-7.7955,-7.8261,-7.8264,0,0,0,-7.7785,-7.7831,-7.7818,-7.7866,-7.7871,-7.782,-7.7824,-7.7938,-7.7929,-7.799,-7.797,-7.7955,-7.7956,-7.8259,-7.8262,-7.8427,0,0,0,-7.7783,-7.7834,-7.7818,-7.785,-7.7871,-7.7905,-7.7864,-7.7924,-7.7931,-7.7969,-7.7955,-7.7958,-7.8256,-7.8261,-7.8417,-7.8496,0,0,0,-7.7799,-7.7835,-7.785,-7.7853,-7.7874,-7.7903,-7.7898,-7.7924,-7.792,-7.7953,-7.7958,-7.8254,-7.826,-7.8408,-7.8481,-7.8592,0,0,0,-7.7832,-7.7996,-7.7854,-7.803,-7.7874,-7.8005,-7.7897,-7.7991,-7.804,-7.7956,-7.8256,-7.8262,-7.8405,-7.8471,-7.8583,-7.8695,-7.8747,0,0,-7.8068,-7.8026,-7.8126,-7.8,-7.817,-7.7994,-7.8187,-7.8182,-7.8137,-7.8224,-7.8231,-7.842,-7.848,-7.859,-7.902,-7.9062,0,0,0,-7.8218,-7.829,-7.8324,-7.8372,-7.8373,-7.838,-7.834,-7.8338,-7.8409,-7.8193,-7.8489,-7.8523,-7.8586,-7.8637,-7.8672,-7.8723,-7.8288,-7.8287,-7.8287,-7.8625,-7.8561,-7.8721,-7.8662,-7.8711,-7.8669,-7.8702,-7.8692,-7.8612,-7.8684,-7.8708,-7.8977,-7.9039,-7.9065,-7.9118,-7.8763,-7.8763,-7.8764,-7.8764,-7.8965,-7.9056,-7.8947,-7.9063,-7.8994,-7.9091,-7.9057,-7.8998,-7.9077,-7.8953,-7.9005,-7.8873,-7.9113,-7.9156,-7.8776,-7.8774,-7.8773,-7.8772,-7.8771,-7.9223,-7.9256,-7.9252,-7.9316,-7.9374,-7.9308,-7.9391,-7.9325,-7.9263,-7.9315,-7.9334,-7.9331,-7.9319,-7.9329,-7.933,-7.9331,-7.9332,-7.9332,-7.9333,-7.9493,-7.9483,-7.956,-7.9577,-7.96,-7.9622,-7.9583,-7.9604,-7.961,-7.9555,-7.9555,-7.9468,-7.9149,-7.9069,-7.9347,-7.9344,-7.9343,-7.9341,-7.934,-7.9859,-7.9766,-7.9886,-7.991,-7.9923,-7.9985,-7.99,-7.9949,-7.9957,-8.0,-7.9903,-7.9678,-7.963,-7.9601,-7.9535,-7.9916,-7.9916,-7.9916,-7.9916,-8.0076,-8.0046,-8.0154,-8.0197,-8.023,-8.0167,-8.0305,-8.0277,-8.0233,-8.0234,-8.017,-8.0077,-8.0051,-8.0018,-7.9981,-7.9918,-8.0388,-8.0389,-8.0389,-8.0297,-8.0268,-8.0398,-8.0354,-8.0361,-8.0368,-8.0496,-8.0549,-8.048,-8.0407,-8.0234,-8.0214,-8.0063,-8.0017,-7.9938,-7.9881,-7.9764,0,0]},{"header":{"parameterUnit":"m.s-1","parameterCategory":1,"la1":30.2992,"la2":30.254,"lo1":-89.0895,"lo2":-89.0443,"dy":0.0025,"dx":0.0025,"nx":19,"ny":19,"refTime":"2026-04-07T09:00:00:Z","depth":0,"parameterNumber":3,"parameterNumberName":"V-component_of_WINDS"},"data":[0,0,0,1.6204,1.6204,1.6217,1.6217,1.6209,1.6209,0,0,0,0,0,0,0,0,0,0,0,1.6188,1.6187,1.6204,1.6204,1.6217,1.6217,1.6209,1.6209,0,0,0,0,0,0,0,0,0,0,0,1.6188,1.6187,1.6187,1.6204,1.6217,1.6217,1.6209,1.6208,0,0,0,0,0,0,0,0,0,0,1.6199,1.6172,1.6187,1.6187,1.6204,1.6217,1.6217,1.6208,1.6208,1.6193,0,1.6179,0,1.6194,1.6207,1.6207,0,0,0,1.6213,1.6172,1.6187,1.6187,1.6204,1.6217,1.6214,1.6208,1.6208,1.6193,1.6179,1.618,1.6194,1.6207,1.6207,1.6101,1.61,0,0,1.6212,1.6182,1.6188,1.6187,1.6186,1.6213,1.6214,1.6208,1.619,1.6179,1.618,1.6194,1.6206,1.6206,1.6101,1.61,0,0,0,1.6205,1.6181,1.6198,1.6186,1.6191,1.6214,1.6214,1.6191,1.6199,1.618,1.6194,1.6206,1.6206,1.6102,1.6101,1.6027,0,0,0,1.6205,1.6177,1.6197,1.6178,1.619,1.6191,1.6196,1.6199,1.6199,1.6194,1.6206,1.6206,1.6104,1.6102,1.6031,1.5995,0,0,0,1.6191,1.6175,1.6173,1.6177,1.6182,1.6192,1.62,1.62,1.6207,1.6207,1.6206,1.6104,1.6102,1.6035,1.6001,1.5958,0,0,0,1.6167,1.6105,1.6171,1.6108,1.6181,1.6147,1.62,1.6176,1.6167,1.6206,1.6103,1.6101,1.6036,1.6005,1.5962,1.5914,1.5892,0,0,1.6071,1.6092,1.6057,1.6117,1.6064,1.6148,1.6083,1.6102,1.6129,1.6108,1.6106,1.6029,1.6002,1.5959,1.5784,1.5766,0,0,0,1.6016,1.599,1.5983,1.5975,1.5991,1.6,1.6033,1.6041,1.6025,1.6113,1.6004,1.5989,1.5964,1.5943,1.5928,1.5908,1.6091,1.6091,1.6091,1.5834,1.5875,1.5819,1.5862,1.5853,1.589,1.5886,1.5902,1.5943,1.5917,1.5909,1.5799,1.5773,1.5762,1.5741,1.589,1.589,1.589,1.589,1.5695,1.5664,1.5726,1.5693,1.5736,1.5709,1.5742,1.5773,1.5753,1.5807,1.5788,1.5841,1.5741,1.5725,1.5884,1.5885,1.5886,1.5886,1.5887,1.5578,1.557,1.5584,1.5578,1.5568,1.5614,1.5593,1.5633,1.5669,1.5651,1.5647,1.5648,1.5653,1.5647,1.5647,1.5646,1.5646,1.5646,1.5646,1.545,1.5467,1.5446,1.546,1.5461,1.5467,1.5506,1.5507,1.5519,1.5549,1.555,1.5592,1.5726,1.5757,1.564,1.5641,1.5641,1.5642,1.5642,1.5289,1.5333,1.5299,1.53,1.5321,1.5309,1.5363,1.5363,1.537,1.5358,1.5407,1.55,1.5523,1.5535,1.556,1.54,1.54,1.54,1.54,1.5188,1.5206,1.5181,1.5181,1.5185,1.5231,1.519,1.5221,1.5258,1.5265,1.5295,1.5334,1.5345,1.5361,1.5377,1.5402,1.5204,1.5204,1.5204,1.509,1.5111,1.5068,1.5109,1.513,1.5145,1.5108,1.5104,1.5156,1.5197,1.5271,1.5279,1.5343,1.5362,1.5399,1.5423,1.5469,0,0]}]]